Station Historical Data
Daily Summary for January 4, 2012 Units:  Metric    English   Both
« Previous Day
Next Day »
Daily Weekly Monthly Yearly Custom
  High: Low: Average:
Temperature: 9.8 °C -4.8 °C 2.2 °C
Dew Point: 2.7 °C -10.6 °C -4.2 °C
Humidity: 85% 36% 64%
Wind Speed: 32.2km/h 0km/h 7.6km/h
Wind Gust: 43.5km/h - -
Wind- - South
Pressure: 1029.3 hPa 1021.6 hPa -
Precipitation: 0 mm    
Historical Graphs
 
 
Tabular Data for January 4, 2012
Time Temperature Dew Point Pressure Wind Wind Speed Wind Gust Humidity Rainfall Rate (Hourly) Conditions
00:00 -3.6 °C -10.6 °C 1028.3 hPa SE 4.8 km/h 8 km/h 58% 0 mm
00:01 -3.5 °C -10.6 °C 1028.3 hPa SE 4.8 km/h 8 km/h 58% 0 mm
00:06 -3.4 °C -10.3 °C 1028.3 hPa SSE 3.2 km/h 8 km/h 59% 0 mm
00:11 -3.6 °C -10.4 °C 1028.7 hPa SSE 3.2 km/h 3.2 km/h 59% 0 mm
00:16 -3.7 °C -10.3 °C 1028.7 hPa SSE 1.6 km/h 3.2 km/h 60% 0 mm
00:21 -3.9 °C -10.3 °C 1028.3 hPa Calm   3.2 km/h 61% 0 mm
00:26 -3.9 °C -10.2 °C 1028.3 hPa SSE 3.2 km/h 4.8 km/h 62% 0 mm
00:32 -4.1 °C -10.1 °C 1028.3 hPa SSE 3.2 km/h 3.2 km/h 63% 0 mm
00:37 -4.2 °C -10.2 °C 1028.3 hPa SE 4.8 km/h 4.8 km/h 63% 0 mm
00:38 -4.2 °C -10 °C 1028.3 hPa SE 3.2 km/h 4.8 km/h 64% 0 mm
00:43 -4.3 °C -9.9 °C 1028.3 hPa SSE 3.2 km/h 4.8 km/h 65% 0 mm
00:48 -4.3 °C -9.7 °C 1028.3 hPa SSE 3.2 km/h 4.8 km/h 66% 0 mm
00:53 -4.3 °C -9.7 °C 1028.3 hPa SSE 4.8 km/h 4.8 km/h 66% 0 mm
00:58 -4.3 °C -9.7 °C 1028.3 hPa SSE 4.8 km/h 6.4 km/h 66% 0 mm
01:00 -4.3 °C -9.5 °C 1028.3 hPa SSE 4.8 km/h 6.4 km/h 67% 0 mm
01:03 -4.2 °C -9.6 °C 1028.7 hPa SSE 3.2 km/h 6.4 km/h 66% 0 mm
01:08 -4.2 °C -9.6 °C 1028.7 hPa SSE 3.2 km/h 4.8 km/h 66% 0 mm
01:13 -4.2 °C -9.6 °C 1028.7 hPa South 4.8 km/h 4.8 km/h 66% 0 mm
01:19 -4.2 °C -9.6 °C 1028.7 hPa South 1.6 km/h 4.8 km/h 66% 0 mm
01:24 -4.1 °C -9.5 °C 1028.7 hPa South 4.8 km/h 4.8 km/h 66% 0 mm
01:29 -4.2 °C -9.4 °C 1028.7 hPa SSE 1.6 km/h 6.4 km/h 67% 0 mm
01:30 -4.2 °C -9.4 °C 1028.7 hPa SSE 3.2 km/h 4.8 km/h 67% 0 mm
01:34 -4.2 °C -9.4 °C 1028.7 hPa SSE 3.2 km/h 4.8 km/h 67% 0 mm
01:39 -4.3 °C -9.3 °C 1028.7 hPa SSE 4.8 km/h 4.8 km/h 68% 0 mm
01:44 -4.3 °C -9.3 °C 1028.7 hPa SSW 1.6 km/h 4.8 km/h 68% 0 mm
01:49 -4.2 °C -9.2 °C 1028.7 hPa SSE 3.2 km/h 6.4 km/h 68% 0 mm
01:54 -4.3 °C -9.3 °C 1028.7 hPa SE 3.2 km/h 4.8 km/h 68% 0 mm
01:59 -4.4 °C -9.2 °C 1028.7 hPa SSE 4.8 km/h 6.4 km/h 69% 0 mm
02:00 -4.4 °C -9.2 °C 1028.7 hPa SSE 3.2 km/h 6.4 km/h 69% 0 mm
02:04 -4.3 °C -9.2 °C 1028.7 hPa SSE 3.2 km/h 4.8 km/h 69% 0 mm
02:09 -4.3 °C -9.3 °C 1029 hPa SE 3.2 km/h 4.8 km/h 68% 0 mm
02:14 -4.1 °C -9.3 °C 1029 hPa SE 3.2 km/h 6.4 km/h 67% 0 mm
02:19 -3.9 °C -9.1 °C 1029 hPa SE 4.8 km/h 4.8 km/h 67% 0 mm
02:24 -3.9 °C -9.1 °C 1029 hPa SE 4.8 km/h 6.4 km/h 67% 0 mm
02:29 -3.9 °C -9.2 °C 1029 hPa SSE 4.8 km/h 6.4 km/h 67% 0 mm
02:30 -4 °C -9 °C 1029 hPa SSE 4.8 km/h 6.4 km/h 68% 0 mm
02:34 -4.1 °C -9.1 °C 1029 hPa SSE 4.8 km/h 6.4 km/h 68% 0 mm
02:39 -4.1 °C -8.9 °C 1029 hPa SE 4.8 km/h 6.4 km/h 69% 0 mm
02:44 -4 °C -9 °C 1029 hPa SE 4.8 km/h 8 km/h 68% 0 mm
02:49 -3.9 °C -9.1 °C 1029 hPa SSE 4.8 km/h 6.4 km/h 67% 0 mm
02:54 -3.9 °C -9.3 °C 1029 hPa SE 3.2 km/h 3.2 km/h 66% 0 mm
02:59 -3.8 °C -9.2 °C 1029 hPa SE 3.2 km/h 3.2 km/h 66% 0 mm
03:00 -3.7 °C -9.3 °C 1029 hPa SE 1.6 km/h 3.2 km/h 65% 0 mm
03:04 -3.7 °C -9.3 °C 1029 hPa ESE 3.2 km/h 3.2 km/h 65% 0 mm
03:09 -3.7 °C -9.1 °C 1029.3 hPa ESE 3.2 km/h 3.2 km/h 66% 0 mm
03:14 -3.8 °C -9.2 °C 1029.3 hPa ESE 3.2 km/h 4.8 km/h 66% 0 mm
03:19 -3.8 °C -9.2 °C 1029.3 hPa SE 3.2 km/h 4.8 km/h 66% 0 mm
03:24 -3.8 °C -9.4 °C 1029.3 hPa ESE 1.6 km/h 1.6 km/h 65% 0 mm
03:29 -3.7 °C -9.3 °C 1029.3 hPa SE 3.2 km/h 3.2 km/h 65% 0 mm
03:30 -3.7 °C -9.3 °C 1029.3 hPa ESE 3.2 km/h 3.2 km/h 65% 0 mm
03:34 -3.7 °C -9.5 °C 1029.3 hPa ESE 4.8 km/h 4.8 km/h 64% 0 mm
03:39 -3.8 °C -9.4 °C 1029.3 hPa ESE 3.2 km/h 4.8 km/h 65% 0 mm
03:44 -3.8 °C -9.4 °C 1029.3 hPa SE 3.2 km/h 4.8 km/h 65% 0 mm
03:49 -3.9 °C -9.3 °C 1029 hPa SE 1.6 km/h 3.2 km/h 66% 0 mm
03:54 -4.1 °C -9.3 °C 1029 hPa SE 3.2 km/h 3.2 km/h 67% 0 mm
03:59 -4.2 °C -9.2 °C 1029 hPa SE 4.8 km/h 4.8 km/h 68% 0 mm
04:00 -4.2 °C -9.2 °C 1029 hPa SE 3.2 km/h 4.8 km/h 68% 0 mm
04:04 -4.3 °C -9.3 °C 1029 hPa SSE 4.8 km/h 6.4 km/h 68% 0 mm
04:09 -4.4 °C -9.2 °C 1028.7 hPa SSE 4.8 km/h 6.4 km/h 69% 0 mm
04:14 -4.4 °C -9.3 °C 1029 hPa SE 6.4 km/h 8 km/h 69% 0 mm
04:19 -4.4 °C -9.2 °C 1029 hPa SSE 3.2 km/h 4.8 km/h 69% 0 mm
04:24 -4.4 °C -9.3 °C 1029 hPa SSE 4.8 km/h 4.8 km/h 69% 0 mm
04:29 -4.5 °C -9.3 °C 1029 hPa SSE 4.8 km/h 6.4 km/h 69% 0 mm
04:30 -4.6 °C -9.4 °C 1028.7 hPa SSE 6.4 km/h 6.4 km/h 69% 0 mm
04:35 -4.7 °C -9.3 °C 1028.7 hPa SSE 6.4 km/h 8 km/h 70% 0 mm
04:40 -4.8 °C -9.2 °C 1028.3 hPa SE 6.4 km/h 9.7 km/h 71% 0 mm
04:45 -4.6 °C -9 °C 1028.3 hPa SSE 6.4 km/h 9.7 km/h 71% 0 mm
04:50 -4.4 °C -8.9 °C 1028.3 hPa SSE 6.4 km/h 9.7 km/h 71% 0 mm
04:55 -4.4 °C -9.1 °C 1028.3 hPa SE 6.4 km/h 9.7 km/h 70% 0 mm
05:00 -4.4 °C -9 °C 1028.3 hPa SE 6.4 km/h 9.7 km/h 70% 0 mm
05:05 -4.3 °C -9.2 °C 1028.3 hPa SSE 9.7 km/h 9.7 km/h 69% 0 mm
05:10 -4.3 °C -9.2 °C 1028.3 hPa South 6.4 km/h 6.4 km/h 69% 0 mm
05:15 -4.3 °C -9.2 °C 1028.3 hPa SSE 4.8 km/h 6.4 km/h 69% 0 mm
05:20 -4.4 °C -9.2 °C 1028.3 hPa SSE 4.8 km/h 8 km/h 69% 0 mm
05:25 -4.3 °C -9.3 °C 1028 hPa SSE 6.4 km/h 9.7 km/h 68% 0 mm
05:30 -4.3 °C -9.2 °C 1028 hPa SE 6.4 km/h 8 km/h 69% 0 mm
05:35 -4.4 °C -9.2 °C 1028 hPa SSE 6.4 km/h 8 km/h 69% 0 mm
05:36 -4.4 °C -9.2 °C 1028 hPa SE 4.8 km/h 8 km/h 69% 0 mm
05:41 -4.4 °C -9.2 °C 1028 hPa SSE 6.4 km/h 12.9 km/h 69% 0 mm
05:46 -4.3 °C -9.3 °C 1028 hPa SSE 8 km/h 8 km/h 68% 0 mm
05:51 -4.3 °C -9.5 °C 1028 hPa South 4.8 km/h 8 km/h 67% 0 mm
05:56 -4.2 °C -9.2 °C 1028 hPa SSE 4.8 km/h 6.4 km/h 68% 0 mm
06:00 -4.2 °C -9.2 °C 1028 hPa SE 4.8 km/h 9.7 km/h 68% 0 mm
06:01 -4.2 °C -9.2 °C 1027.7 hPa SSE 4.8 km/h 9.7 km/h 68% 0 mm
06:06 -4.2 °C -9.4 °C 1028 hPa SSE 4.8 km/h 8 km/h 67% 0 mm
06:11 -4.1 °C -9.5 °C 1028.3 hPa SSW 1.6 km/h 4.8 km/h 66% 0 mm
06:16 -4.1 °C -9.7 °C 1028.3 hPa South 3.2 km/h 4.8 km/h 65% 0 mm
06:21 -4.3 °C -9.7 °C 1028.3 hPa SSE 3.2 km/h 4.8 km/h 66% 0 mm
06:26 -4.4 °C -9.7 °C 1028.3 hPa SSE 4.8 km/h 6.4 km/h 67% 0 mm
06:30 -4.6 °C -9.6 °C 1028.3 hPa South 3.2 km/h 4.8 km/h 68% 0 mm
06:31 -4.6 °C -9.6 °C 1028.3 hPa South 3.2 km/h 4.8 km/h 68% 0 mm
06:36 -4.7 °C -9.7 °C 1028 hPa SSE 6.4 km/h 6.4 km/h 68% 0 mm
06:41 -4.8 °C -9.4 °C 1028 hPa SSE 6.4 km/h 8 km/h 70% 0 mm
06:46 -4.7 °C -9.5 °C 1028 hPa SSE 6.4 km/h 9.7 km/h 69% 0 mm
06:51 -4.6 °C -9.6 °C 1027.7 hPa SSE 8 km/h 8 km/h 68% 0 mm
06:56 -4.5 °C -9.5 °C 1027.7 hPa SSE 8 km/h 9.7 km/h 68% 0 mm
07:00 -4.4 °C -9.4 °C 1027.7 hPa SSE 8 km/h 9.7 km/h 68% 0 mm
07:01 -4.4 °C -9.4 °C 1027.7 hPa SSE 8 km/h 9.7 km/h 68% 0 mm
07:06 -4.4 °C -9.4 °C 1027.7 hPa SSE 8 km/h 9.7 km/h 68% 0 mm
07:11 -4.4 °C -9.4 °C 1028 hPa SSE 4.8 km/h 9.7 km/h 68% 0 mm
07:16 -4.4 °C -9.4 °C 1028 hPa South 4.8 km/h 6.4 km/h 68% 0 mm
07:21 -4.3 °C -9.6 °C 1028 hPa South 4.8 km/h 6.4 km/h 67% 0 mm
07:26 -4.3 °C -9.6 °C 1028 hPa SSE 6.4 km/h 8 km/h 67% 0 mm
07:30 -4.4 °C -9.6 °C 1028 hPa SSE 6.4 km/h 6.4 km/h 67% 0 mm
07:31 -4.4 °C -9.6 °C 1028 hPa SSE 8 km/h 8 km/h 67% 0 mm
07:36 -4.4 °C -9.7 °C 1028 hPa SSE 4.8 km/h 8 km/h 67% 0 mm
07:41 -4.4 °C -9.7 °C 1028 hPa SSE 6.4 km/h 8 km/h 67% 0 mm
07:46 -4.4 °C -9.7 °C 1028 hPa SSE 4.8 km/h 8 km/h 67% 0 mm
07:51 -4.5 °C -9.7 °C 1028 hPa SSE 6.4 km/h 8 km/h 67% 0 mm
07:56 -4.4 °C -9.7 °C 1027.7 hPa SSE 8 km/h 11.3 km/h 67% 0 mm
08:00 -4.3 °C -9.7 °C 1027.7 hPa SSE 11.3 km/h 11.3 km/h 66% 0 mm
08:01 -4.3 °C -9.7 °C 1027.7 hPa South 9.7 km/h 11.3 km/h 66% 0 mm
08:06 -4.2 °C -9.6 °C 1027.7 hPa SE 8 km/h 11.3 km/h 66% 0 mm
08:11 -4 °C -9.4 °C 1027.7 hPa SE 8 km/h 11.3 km/h 66% 0 mm
08:16 -3.8 °C -9.4 °C 1027.7 hPa SSE 9.7 km/h 9.7 km/h 65% 0 mm
08:21 -3.7 °C -9.6 °C 1027.7 hPa SSE 6.4 km/h 8 km/h 64% 0 mm
08:26 -3.4 °C -9.4 °C 1027.7 hPa South 9.7 km/h 11.3 km/h 63% 0 mm
08:30 -3.3 °C -9.3 °C 1027.7 hPa SSW 9.7 km/h 11.3 km/h 63% 0 mm
08:31 -3.3 °C -9.3 °C 1027.7 hPa SE 9.7 km/h 11.3 km/h 63% 0 mm
08:36 -2.9 °C -9.2 °C 1027.3 hPa SSE 8 km/h 9.7 km/h 62% 0 mm
08:41 -2.7 °C -9.1 °C 1027.3 hPa SSE 8 km/h 12.9 km/h 61% 0 mm
08:46 -2.4 °C -9.1 °C 1027.7 hPa SSE 11.3 km/h 12.9 km/h 60% 0 mm
08:51 -2.1 °C -9.1 °C 1027.7 hPa SSE 9.7 km/h 11.3 km/h 59% 0 mm
08:56 -1.8 °C -8.9 °C 1027.7 hPa SSE 8 km/h 14.5 km/h 58% 0 mm
09:00 -1.6 °C -8.8 °C 1027.7 hPa SSE 9.7 km/h 14.5 km/h 58% 0 mm
09:01 -1.6 °C -8.9 °C 1027.7 hPa South 8 km/h 14.5 km/h 57% 0 mm
09:06 -1.3 °C -8.8 °C 1027.7 hPa South 4.8 km/h 17.7 km/h 57% 0 mm
09:11 -1.1 °C -8.8 °C 1027.7 hPa SSE 8 km/h 11.3 km/h 56% 0 mm
09:16 -0.8 °C -8.5 °C 1027.7 hPa South 8 km/h 8 km/h 56% 0 mm
09:21 -0.7 °C -9.1 °C 1027.3 hPa SSE 12.9 km/h 12.9 km/h 53% 0 mm
09:27 -0.5 °C -8.7 °C 1027.7 hPa SSE 8 km/h 14.5 km/h 54% 0 mm
09:30 -0.4 °C -8.8 °C 1027.3 hPa SE 9.7 km/h 14.5 km/h 53% 0 mm
09:32 -0.4 °C -8.8 °C 1027.3 hPa SE 6.4 km/h 14.5 km/h 53% 0 mm
09:37 -0.2 °C -8.4 °C 1027.7 hPa SSE 9.7 km/h 11.3 km/h 54% 0 mm
09:42 -0.1 °C -8.5 °C 1027.7 hPa South 9.7 km/h 12.9 km/h 53% 0 mm
09:47 0.2 °C -8.1 °C 1027.7 hPa SSW 6.4 km/h 11.3 km/h 54% 0 mm
09:52 0.4 °C -8.3 °C 1027.7 hPa SSW 8 km/h 8 km/h 52% 0 mm
09:57 0.7 °C -8.5 °C 1027.3 hPa SW 11.3 km/h 12.9 km/h 50% 0 mm
10:00 0.9 °C -8.1 °C 1027.7 hPa SSW 6.4 km/h 14.5 km/h 51% 0 mm
10:02 1.1 °C -7.9 °C 1027.7 hPa SSW 9.7 km/h 14.5 km/h 51% 0 mm
10:07 1.4 °C -7.8 °C 1027.3 hPa SSE 8 km/h 12.9 km/h 50% 0 mm
10:12 1.8 °C -7.6 °C 1027.3 hPa SSW 8 km/h 17.7 km/h 50% 0 mm
10:17 1.9 °C -8.2 °C 1027.3 hPa SSE 9.7 km/h 14.5 km/h 47% 0 mm
10:22 2 °C -8.7 °C 1027.3 hPa SSW 6.4 km/h 19.3 km/h 45% 0 mm
10:27 2.3 °C -8.1 °C 1027.3 hPa South 9.7 km/h 12.9 km/h 46% 0 mm
10:30 2.5 °C -8.2 °C 1027.7 hPa SSW 4.8 km/h 17.7 km/h 45% 0 mm
10:32 2.6 °C -8.2 °C 1027.7 hPa SE 4.8 km/h 17.7 km/h 45% 0 mm
10:37 2.7 °C -8 °C 1027.3 hPa SSW 12.9 km/h 16.1 km/h 45% 0 mm
10:42 3 °C -7.8 °C 1027.7 hPa South 9.7 km/h 11.3 km/h 45% 0 mm
10:47 3.1 °C -8.3 °C 1027.7 hPa SSW 6.4 km/h 16.1 km/h 43% 0 mm
10:52 3.4 °C -7.9 °C 1027.3 hPa SW 14.5 km/h 19.3 km/h 43% 0 mm
10:57 3.6 °C -7.8 °C 1027.3 hPa WSW 14.5 km/h 16.1 km/h 43% 0 mm
11:00 3.8 °C -7.9 °C 1027.3 hPa South 12.9 km/h 17.7 km/h 42% 0 mm
11:02 3.8 °C -8.3 °C 1027.3 hPa SSW 6.4 km/h 17.7 km/h 41% 0 mm
11:07 4.1 °C -7.4 °C 1027 hPa SSE 14.5 km/h 17.7 km/h 43% 0 mm
11:12 4.4 °C -7.1 °C 1026.6 hPa WSW 12.9 km/h 17.7 km/h 43% 0 mm
11:17 4.7 °C -7.8 °C 1026.6 hPa SSW 14.5 km/h 19.3 km/h 40% 0 mm
11:22 4.9 °C -7.6 °C 1026.6 hPa South 19.3 km/h 19.3 km/h 40% 0 mm
11:27 5.1 °C -7.7 °C 1026.3 hPa SW 16.1 km/h 20.9 km/h 39% 0 mm
11:30 5.2 °C -7.3 °C 1026.3 hPa SSW 14.5 km/h 16.1 km/h 40% 0 mm
11:32 5.2 °C -6.9 °C 1026.3 hPa South 17.7 km/h 17.7 km/h 41% 0 mm
11:37 5.5 °C -7.7 °C 1026.3 hPa SW 9.7 km/h 24.1 km/h 38% 0 mm
11:43 5.8 °C -6.8 °C 1026 hPa WSW 6.4 km/h 20.9 km/h 40% 0 mm
11:48 6.3 °C -6.6 °C 1026 hPa South 9.7 km/h 14.5 km/h 39% 0 mm
11:53 6.5 °C -6.8 °C 1026 hPa SW 14.5 km/h 19.3 km/h 38% 0 mm
11:58 6.7 °C -6.6 °C 1025.6 hPa SW 17.7 km/h 20.9 km/h 38% 0 mm
12:00 6.9 °C -6.4 °C 1025.6 hPa SW 14.5 km/h 17.7 km/h 38% 0 mm
12:03 6.9 °C -6.4 °C 1025.6 hPa WSW 9.7 km/h 17.7 km/h 38% 0 mm
12:08 6.9 °C -6.8 °C 1025.3 hPa SSW 14.5 km/h 24.1 km/h 37% 0 mm
12:13 7.1 °C -6.7 °C 1025.3 hPa SW 14.5 km/h 20.9 km/h 37% 0 mm
12:18 7.2 °C -6.5 °C 1024.9 hPa WSW 16.1 km/h 19.3 km/h 37% 0 mm
12:23 7.6 °C -5.8 °C 1024.6 hPa West 11.3 km/h 19.3 km/h 38% 0 mm
12:28 8 °C -5.8 °C 1024.3 hPa SSW 16.1 km/h 19.3 km/h 37% 0 mm
12:30 7.9 °C -6.3 °C 1024.3 hPa SW 12.9 km/h 24.1 km/h 36% 0 mm
12:33 7.9 °C -5.8 °C 1024.3 hPa SSE 14.5 km/h 24.1 km/h 37% 0 mm
12:38 8.2 °C -5.7 °C 1024.3 hPa SW 16.1 km/h 20.9 km/h 37% 0 mm
12:43 8.4 °C -5.1 °C 1023.9 hPa South 12.9 km/h 20.9 km/h 38% 0 mm
12:48 8.4 °C -4.4 °C 1023.9 hPa SW 14.5 km/h 27.4 km/h 40% 0 mm
12:53 8.6 °C -4.6 °C 1023.6 hPa WSW 11.3 km/h 24.1 km/h 39% 0 mm
12:58 8.8 °C -2.8 °C 1023.6 hPa WSW 22.5 km/h 32.2 km/h 44% 0 mm
13:00 9 °C -2.9 °C 1023.6 hPa SW 22.5 km/h 29 km/h 43% 0 mm
13:04 8.9 °C -2.7 °C 1023.6 hPa WSW 17.7 km/h 29 km/h 44% 0 mm
13:09 9.2 °C -2.4 °C 1023.2 hPa SW 17.7 km/h 25.7 km/h 44% 0 mm
13:14 9.3 °C -2 °C 1023.2 hPa SSW 19.3 km/h 25.7 km/h 45% 0 mm
13:19 9.4 °C -1.3 °C 1023.2 hPa SSW 29 km/h 33.8 km/h 47% 0 mm
13:24 9.5 °C -0.9 °C 1022.9 hPa South 16.1 km/h 30.6 km/h 48% 0 mm
13:29 9.6 °C 0.2 °C 1022.9 hPa SW 20.9 km/h 29 km/h 52% 0 mm
13:30 9.4 °C 0.3 °C 1022.9 hPa SW 22.5 km/h 29 km/h 53% 0 mm
13:34 9.5 °C 0.7 °C 1022.6 hPa SW 20.9 km/h 29 km/h 54% 0 mm
13:39 9.6 °C 0.9 °C 1022.6 hPa SW 17.7 km/h 30.6 km/h 55% 0 mm
13:44 9.5 °C 1.2 °C 1022.6 hPa WSW 32.2 km/h 32.2 km/h 56% 0 mm
13:49 9.4 °C 1.6 °C 1022.6 hPa South 22.5 km/h 25.7 km/h 58% 0 mm
13:54 9.3 °C 1.9 °C 1022.2 hPa WSW 16.1 km/h 43.5 km/h 60% 0 mm
13:59 9.5 °C 2.3 °C 1022.2 hPa SW 27.4 km/h 27.4 km/h 61% 0 mm
14:00 9.4 °C 2 °C 1022.2 hPa SW 25.7 km/h 32.2 km/h 60% 0 mm
14:04 9.4 °C 2.6 °C 1022.2 hPa SW 17.7 km/h 29 km/h 62% 0 mm
14:09 9.6 °C 2.4 °C 1022.2 hPa West 22.5 km/h 27.4 km/h 61% 0 mm
14:14 9.7 °C 2.5 °C 1021.9 hPa SW 22.5 km/h 29 km/h 61% 0 mm
14:19 9.6 °C 2.7 °C 1021.9 hPa SW 16.1 km/h 29 km/h 62% 0 mm
14:24 9.6 °C 2.7 °C 1021.9 hPa SW 17.7 km/h 25.7 km/h 62% 0 mm
14:29 9.5 °C 2.3 °C 1021.9 hPa SSE 17.7 km/h 25.7 km/h 61% 0 mm
14:30 9.4 °C 2.3 °C 1021.9 hPa SW 24.1 km/h 32.2 km/h 61% 0 mm
14:34 9.3 °C 2.4 °C 1021.9 hPa SSW 17.7 km/h 27.4 km/h 62% 0 mm
14:39 9.4 °C 2.6 °C 1021.9 hPa SW 16.1 km/h 24.1 km/h 62% 0 mm
14:45 9.6 °C 2.7 °C 1021.9 hPa SW 16.1 km/h 19.3 km/h 62% 0 mm
14:50 9.4 °C 2.3 °C 1021.9 hPa South 16.1 km/h 22.5 km/h 61% 0 mm
14:55 9.5 °C 2.6 °C 1021.9 hPa SSW 12.9 km/h 25.7 km/h 62% 0 mm
15:00 9.6 °C 2.4 °C 1021.9 hPa SW 14.5 km/h 22.5 km/h 61% 0 mm
15:05 9.6 °C 2.2 °C 1021.9 hPa WSW 17.7 km/h 20.9 km/h 60% 0 mm
15:10 9.4 °C 2 °C 1021.9 hPa WSW 14.5 km/h 20.9 km/h 60% 0 mm
15:15 9.3 °C 2.2 °C 1021.9 hPa West 11.3 km/h 19.3 km/h 61% 0 mm
15:20 9.6 °C 2.4 °C 1022.2 hPa SSW 11.3 km/h 22.5 km/h 61% 0 mm
15:25 9.5 °C 2.1 °C 1021.9 hPa SSW 11.3 km/h 22.5 km/h 60% 0 mm
15:30 9.6 °C 2.2 °C 1021.9 hPa WSW 12.9 km/h 22.5 km/h 60% 0 mm
15:35 9.5 °C 2.1 °C 1021.6 hPa SW 12.9 km/h 20.9 km/h 60% 0 mm
15:40 9.8 °C 2.4 °C 1021.6 hPa SSW 12.9 km/h 17.7 km/h 60% 0 mm
15:45 9.7 °C 2.1 °C 1021.6 hPa SW 9.7 km/h 20.9 km/h 59% 0 mm
15:50 9.6 °C 2 °C 1021.6 hPa West 8 km/h 22.5 km/h 59% 0 mm
15:55 9.6 °C 2.2 °C 1021.6 hPa WSW 11.3 km/h 22.5 km/h 60% 0 mm
16:00 9.5 °C 2.1 °C 1021.6 hPa SW 11.3 km/h 22.5 km/h 60% 0 mm
16:05 9.5 °C 2.3 °C 1021.6 hPa South 8 km/h 19.3 km/h 61% 0 mm
16:10 9.6 °C 2.4 °C 1021.6 hPa SW 17.7 km/h 17.7 km/h 61% 0 mm
16:15 9.6 °C 2.4 °C 1021.6 hPa SW 20.9 km/h 20.9 km/h 61% 0 mm
16:20 9.5 °C 2.3 °C 1021.6 hPa SW 12.9 km/h 17.7 km/h 61% 0 mm
16:25 9.6 °C 2.4 °C 1021.6 hPa WSW 14.5 km/h 22.5 km/h 61% 0 mm
16:30 9.5 °C 2.3 °C 1021.6 hPa SW 12.9 km/h 20.9 km/h 61% 0 mm
16:35 9.4 °C 2.3 °C 1021.6 hPa WSW 16.1 km/h 25.7 km/h 61% 0 mm
16:40 9.4 °C 2.3 °C 1021.6 hPa SW 12.9 km/h 19.3 km/h 61% 0 mm
16:45 9.3 °C 2.4 °C 1021.6 hPa WSW 14.5 km/h 20.9 km/h 62% 0 mm
16:50 9.3 °C 2.4 °C 1021.9 hPa WSW 6.4 km/h 19.3 km/h 62% 0 mm
16:55 9.3 °C 2.4 °C 1021.9 hPa WSW 9.7 km/h 14.5 km/h 62% 0 mm
17:00 9.3 °C 2.4 °C 1021.9 hPa SW 12.9 km/h 19.3 km/h 62% 0 mm
17:05 9.2 °C 2.5 °C 1021.9 hPa WSW 12.9 km/h 16.1 km/h 63% 0 mm
17:10 9.2 °C 2.5 °C 1021.9 hPa SW 19.3 km/h 22.5 km/h 63% 0 mm
17:15 9.1 °C 2.4 °C 1021.9 hPa WSW 14.5 km/h 19.3 km/h 63% 0 mm
17:20 9.1 °C 2.4 °C 1021.9 hPa SW 8 km/h 16.1 km/h 63% 0 mm
17:25 8.9 °C 2.5 °C 1022.2 hPa SW 12.9 km/h 17.7 km/h 64% 0 mm
17:30 8.8 °C 2.4 °C 1022.2 hPa WSW 11.3 km/h 14.5 km/h 64% 0 mm
17:35 8.7 °C 2.4 °C 1022.2 hPa SW 6.4 km/h 11.3 km/h 65% 0 mm
17:36 8.7 °C 2.4 °C 1022.2 hPa SSW 4.8 km/h 11.3 km/h 65% 0 mm
17:41 8.4 °C 2.4 °C 1022.2 hPa WSW 8 km/h 9.7 km/h 66% 0 mm
17:46 8.2 °C 2.4 °C 1022.6 hPa SW 6.4 km/h 8 km/h 67% 0 mm
17:51 7.9 °C 2.3 °C 1022.6 hPa SW 4.8 km/h 8 km/h 68% 0 mm
17:56 7.8 °C 2.2 °C 1022.6 hPa SW 4.8 km/h 6.4 km/h 68% 0 mm
18:01 7.3 °C 1.9 °C 1022.2 hPa SSW 4.8 km/h 4.8 km/h 69% 0 mm
18:06 6.9 °C 1.8 °C 1022.2 hPa SSW 3.2 km/h 4.8 km/h 70% 0 mm
18:11 6.8 °C 1.9 °C 1022.2 hPa SSW 3.2 km/h 4.8 km/h 71% 0 mm
18:16 6.8 °C 1.9 °C 1022.2 hPa South 3.2 km/h 3.2 km/h 71% 0 mm
18:21 6.7 °C 2.1 °C 1022.2 hPa South 3.2 km/h 3.2 km/h 72% 0 mm
18:26 6.7 °C 2 °C 1022.2 hPa SSE 1.6 km/h 3.2 km/h 72% 0 mm
18:31 6.6 °C 2.1 °C 1022.2 hPa Calm   4.8 km/h 73% 0 mm
18:36 6.5 °C 2 °C 1022.2 hPa SSW 1.6 km/h 3.2 km/h 73% 0 mm
18:41 6.4 °C 1.9 °C 1022.6 hPa Calm   4.8 km/h 73% 0 mm
18:46 6.3 °C 2 °C 1022.6 hPa SSW 1.6 km/h 3.2 km/h 74% 0 mm
18:51 6.2 °C 1.9 °C 1022.6 hPa Calm   1.6 km/h 74% 0 mm
18:56 6.1 °C 1.9 °C 1022.6 hPa South 3.2 km/h 3.2 km/h 75% 0 mm
19:01 5.9 °C 1.8 °C 1022.6 hPa SE 4.8 km/h 4.8 km/h 75% 0 mm
19:06 5.9 °C 2.1 °C 1022.2 hPa SSE 3.2 km/h 4.8 km/h 76% 0 mm
19:11 5.9 °C 2.1 °C 1022.6 hPa SSE 3.2 km/h 4.8 km/h 76% 0 mm
19:16 5.9 °C 2.1 °C 1022.6 hPa South 1.6 km/h 3.2 km/h 76% 0 mm
19:21 5.9 °C 2.1 °C 1022.6 hPa Calm   1.6 km/h 76% 0 mm
19:26 5.9 °C 2.2 °C 1022.6 hPa SSW 1.6 km/h 3.2 km/h 77% 0 mm
19:31 5.8 °C 1.9 °C 1022.6 hPa SW 1.6 km/h 3.2 km/h 76% 0 mm
19:36 5.7 °C 2 °C 1022.6 hPa WSW 3.2 km/h 3.2 km/h 77% 0 mm
19:41 5.8 °C 2.1 °C 1022.9 hPa WSW 1.6 km/h 3.2 km/h 77% 0 mm
19:46 5.9 °C 2.2 °C 1022.9 hPa SW 1.6 km/h 3.2 km/h 77% 0 mm
19:52 6.1 °C 2.3 °C 1022.9 hPa WSW 1.6 km/h 3.2 km/h 77% 0 mm
19:57 5.9 °C 2.2 °C 1023.2 hPa SW 1.6 km/h 3.2 km/h 77% 0 mm
20:02 5.9 °C 2.2 °C 1023.2 hPa WSW 1.6 km/h 3.2 km/h 77% 0 mm
20:07 5.8 °C 2.1 °C 1023.6 hPa Calm     77% 0 mm
20:12 5.7 °C 2.2 °C 1023.2 hPa WSW 3.2 km/h 3.2 km/h 78% 0 mm
20:17 5.8 °C 2.3 °C 1023.6 hPa WSW 1.6 km/h 3.2 km/h 78% 0 mm
20:22 5.8 °C 2.2 °C 1023.6 hPa SW 1.6 km/h 4.8 km/h 78% 0 mm
20:27 5.8 °C 2.3 °C 1023.6 hPa WSW 1.6 km/h 1.6 km/h 78% 0 mm
20:32 5.8 °C 2.2 °C 1023.6 hPa Calm   1.6 km/h 78% 0 mm
20:37 5.7 °C 2.3 °C 1023.9 hPa Calm     79% 0 mm
20:42 5.7 °C 2.3 °C 1023.9 hPa WSW 1.6 km/h 1.6 km/h 79% 0 mm
20:47 5.8 °C 2.4 °C 1023.9 hPa WSW 3.2 km/h 4.8 km/h 79% 0 mm
20:52 5.8 °C 2.3 °C 1023.9 hPa West 3.2 km/h 6.4 km/h 78% 0 mm
20:57 5.9 °C 2.5 °C 1023.9 hPa WSW 1.6 km/h 3.2 km/h 79% 0 mm
21:02 5.8 °C 2.5 °C 1023.9 hPa SW 1.6 km/h 3.2 km/h 79% 0 mm
21:07 5.8 °C 2.5 °C 1023.9 hPa WSW 1.6 km/h 3.2 km/h 79% 0 mm
21:12 5.7 °C 2.4 °C 1023.9 hPa SW 3.2 km/h 4.8 km/h 79% 0 mm
21:17 5.5 °C 2.2 °C 1023.6 hPa Calm   1.6 km/h 79% 0 mm
21:22 5.4 °C 2.2 °C 1023.6 hPa SW 3.2 km/h 3.2 km/h 80% 0 mm
21:27 5.4 °C 2.3 °C 1023.6 hPa SW 3.2 km/h 4.8 km/h 80% 0 mm
21:32 5.4 °C 2.3 °C 1023.6 hPa SW 3.2 km/h 4.8 km/h 80% 0 mm
21:37 5.4 °C 2.3 °C 1023.9 hPa WSW 4.8 km/h 4.8 km/h 80% 0 mm
21:43 5.4 °C 2.3 °C 1023.9 hPa WSW 1.6 km/h 4.8 km/h 80% 0 mm
21:48 5.4 °C 2.4 °C 1023.9 hPa Calm   3.2 km/h 81% 0 mm
21:53 5.3 °C 2.3 °C 1023.9 hPa West 1.6 km/h 3.2 km/h 81% 0 mm
21:58 5.3 °C 2.3 °C 1023.9 hPa WSW 1.6 km/h 4.8 km/h 81% 0 mm
22:03 5.3 °C 2.3 °C 1023.9 hPa WSW 3.2 km/h 4.8 km/h 81% 0 mm
22:08 5.3 °C 2.3 °C 1023.9 hPa WSW 3.2 km/h 4.8 km/h 81% 0 mm
22:13 5.2 °C 2.2 °C 1023.9 hPa WSW 1.6 km/h 4.8 km/h 81% 0 mm
22:18 5.1 °C 2.1 °C 1023.9 hPa WSW 3.2 km/h 3.2 km/h 81% 0 mm
22:23 5.1 °C 2.1 °C 1023.9 hPa WSW 1.6 km/h 3.2 km/h 81% 0 mm
22:28 5.1 °C 2.1 °C 1023.9 hPa SW 3.2 km/h 3.2 km/h 81% 0 mm
22:33 4.9 °C 1.9 °C 1023.9 hPa WSW 1.6 km/h 3.2 km/h 81% 0 mm
22:38 4.8 °C 1.9 °C 1023.9 hPa SW 3.2 km/h 3.2 km/h 82% 0 mm
22:43 4.6 °C 2 °C 1023.6 hPa SW 3.2 km/h 3.2 km/h 83% 0 mm
22:48 4.4 °C 1.8 °C 1023.6 hPa SW 1.6 km/h 3.2 km/h 83% 0 mm
22:53 4.4 °C 1.9 °C 1023.9 hPa Calm   3.2 km/h 84% 0 mm
22:58 4.4 °C 1.9 °C 1023.6 hPa WSW 1.6 km/h 1.6 km/h 84% 0 mm
23:03 4.4 °C 2 °C 1023.6 hPa SW 1.6 km/h 1.6 km/h 84% 0 mm
23:08 4.4 °C 2 °C 1023.6 hPa WSW 1.6 km/h 3.2 km/h 84% 0 mm
23:13 4.4 °C 1.9 °C 1023.6 hPa Calm   3.2 km/h 84% 0 mm
23:18 4.2 °C 1.8 °C 1023.6 hPa Calm   1.6 km/h 84% 0 mm
23:23 4.2 °C 1.7 °C 1023.6 hPa Calm   1.6 km/h 84% 0 mm
23:28 4.1 °C 1.8 °C 1023.6 hPa Calm     85% 0 mm
23:33 4.1 °C 1.8 °C 1023.6 hPa Calm   1.6 km/h 85% 0 mm
23:38 4.2 °C 1.9 °C 1023.6 hPa Calm   1.6 km/h 85% 0 mm
23:44 4.3 °C 1.8 °C 1023.6 hPa WSW 1.6 km/h 1.6 km/h 84% 0 mm
23:49 4.3 °C 1.9 °C 1023.2 hPa SW 1.6 km/h 3.2 km/h 84% 0 mm
23:54 4.3 °C 1.8 °C 1023.2 hPa SW 3.2 km/h 3.2 km/h 84% 0 mm
23:59 4.2 °C 1.7 °C 1023.2 hPa WSW 3.2 km/h 3.2 km/h 84% 0 mm
Compliments of Weather Underground